DLH255 EDDF-EDDL

Flight info

Callsign DLH255
Flight time N/A
Altitude 24000
Route MARUN3W/25C MARUN Y152 ARPEG Z850 ADEMI T854 DOMUX DOMUX1A
Aircraft A346/H-SDE2E3FGHIJ3J4J5M1RWXY/LB1D1

Departure

Time 2026-05-05 16:26
Airport Frankfurt Main Airport (EDDF)

Arrival

Time N/A
Airport Düsseldorf Airport (EDDL)
Time Latitude Longitude Altitude Speed Heading
2026-05-05 15:57 50.04763 8.57759 378 ft 0 kts 270°
2026-05-05 16:15 50.04763 8.57767 380 ft 3 kts 272°
2026-05-05 16:16 50.04744 8.57833 381 ft 4 kts 319°
2026-05-05 16:16 50.04698 8.57872 384 ft 4 kts 339°
2026-05-05 16:17 50.04673 8.57888 384 ft 0 kts 334°
2026-05-05 16:20 50.04677 8.57885 384 ft 3 kts 334°
2026-05-05 16:20 50.04792 8.57992 385 ft 15 kts 73°
2026-05-05 16:21 50.04883 8.58386 384 ft 22 kts 69°
2026-05-05 16:22 50.04749 8.58735 380 ft 17 kts 193°
2026-05-05 16:22 50.04703 8.58674 379 ft 4 kts 239°
2026-05-05 16:23 50.04672 8.58601 381 ft 11 kts 215°
2026-05-05 16:23 50.04593 8.58593 379 ft 13 kts 169°
2026-05-05 16:23 50.04470 8.58509 382 ft 0 kts 248°
2026-05-05 16:25 50.04305 8.57827 377 ft 98 kts 249°
2026-05-05 16:25 50.03965 8.56400 368 ft 160 kts 249°
2026-05-05 16:26 50.02961 8.52065 1689 ft 185 kts 251°
2026-05-05 16:26 50.01522 8.48654 3061 ft 199 kts 213°
2026-05-05 16:27 50.00204 8.47861 3660 ft 211 kts 193°
2026-05-05 16:27 49.97165 8.47239 5249 ft 219 kts 188°
2026-05-05 16:27 49.93302 8.45796 7506 ft 222 kts 196°
2026-05-05 16:27 49.90552 8.41205 9911 ft 237 kts 261°
2026-05-05 16:28 49.92772 8.35096 12138 ft 262 kts 332°
2026-05-05 16:28 49.97756 8.32158 13646 ft 308 kts 338°
2026-05-05 16:28 50.02207 8.29366 14622 ft 348 kts 338°
2026-05-05 16:28 50.96647 8.40085 23946 ft 450 kts 309°
2026-05-05 16:29 50.99417 8.35214 23970 ft 457 kts 311°
2026-05-05 16:29 51.01724 8.31642 23867 ft 457 kts 316°
2026-05-05 16:29 51.04229 8.28522 23817 ft 458 kts 323°
2026-05-05 16:29 51.09840 8.23218 22534 ft 457 kts 329°
2026-05-05 16:30 51.18223 8.15835 20858 ft 441 kts 329°
2026-05-05 16:30 51.26133 8.08769 19505 ft 426 kts 329°
2026-05-05 16:30 51.34262 8.01463 18097 ft 414 kts 329°
2026-05-05 16:30 51.39665 7.96592 17075 ft 406 kts 329°
2026-05-05 16:31 51.45969 7.89004 15821 ft 389 kts 299°
2026-05-05 16:31 51.45684 7.73395 14224 ft 367 kts 250°
2026-05-05 16:31 51.43630 7.62789 13026 ft 362 kts 252°
2026-05-05 16:31 51.42226 7.55057 12170 ft 356 kts 252°
2026-05-05 16:32 51.40183 7.43248 10815 ft 349 kts 253°
2026-05-05 16:32 51.38298 7.32233 10327 ft 313 kts 253°
2026-05-05 16:32 51.36599 7.22407 9992 ft 278 kts 253°
2026-05-05 16:32 51.35302 7.14957 9695 ft 266 kts 252°
2026-05-05 16:33 51.33732 7.06003 8675 ft 264 kts 252°
2026-05-05 16:33 51.32137 6.96918 7764 ft 260 kts 252°
2026-05-05 16:33 51.30816 6.89432 7013 ft 257 kts 252°
2026-05-05 16:33 51.29395 6.81423 6199 ft 255 kts 252°
2026-05-05 16:34 51.27459 6.73486 5323 ft 250 kts 233°
2026-05-05 16:34 51.25138 6.68769 4720 ft 248 kts 230°
2026-05-05 16:34 51.24079 6.66661 4477 ft 246 kts 230°
2026-05-05 16:34 51.23001 6.64496 4201 ft 245 kts 230°
2026-05-05 16:35 51.21945 6.62365 3927 ft 245 kts 230°
2026-05-05 16:35 51.20889 6.60226 3649 ft 246 kts 231°
2026-05-05 16:35 51.19838 6.58094 3392 ft 246 kts 231°
2026-05-05 16:35 51.18744 6.56015 3117 ft 243 kts 221°
2026-05-05 16:36 51.17242 6.55000 2857 ft 233 kts 182°
2026-05-05 16:36 51.15742 6.55767 2850 ft 225 kts 141°
2026-05-05 16:36 51.15008 6.57790 2836 ft 206 kts 97°
2026-05-05 16:36 51.15375 6.59839 2824 ft 189 kts 50°
2026-05-05 16:37 51.16322 6.61114 2807 ft 170 kts 36°
2026-05-05 16:37 51.17261 6.62114 2739 ft 156 kts 33°
2026-05-05 16:37 51.18177 6.63052 2510 ft 154 kts 33°
2026-05-05 16:37 51.19076 6.63968 2314 ft 153 kts 33°
2026-05-05 16:38 51.19968 6.64876 2113 ft 152 kts 33°
2026-05-05 16:38 51.20868 6.65792 1921 ft 152 kts 33°
2026-05-05 16:38 51.21768 6.66710 1727 ft 151 kts 33°
2026-05-05 16:38 51.22656 6.67614 1536 ft 151 kts 33°
2026-05-05 16:39 51.23545 6.68520 1343 ft 150 kts 33°
2026-05-05 16:39 51.24414 6.69406 1153 ft 150 kts 33°
2026-05-05 16:39 51.25268 6.70380 982 ft 149 kts 38°
2026-05-05 16:39 51.26042 6.71492 815 ft 149 kts 43°
2026-05-05 16:40 51.26751 6.72726 618 ft 149 kts 47°
2026-05-05 16:40 51.27416 6.74075 427 ft 148 kts 50°
2026-05-05 16:40 51.28080 6.75465 194 ft 142 kts 48°
2026-05-05 16:40 51.28651 6.76607 143 ft 104 kts 55°
2026-05-05 16:41 51.28657 6.76621 143 ft 104 kts 55°